Simultaneous Nadir Overpasses (SNOs) Predictions

Prediction of SNOs between AQUA and METOP-B Satellite Orbit:

Table of predicted SNOs for the next 14.0 days since TLE Epoch: 9/25/2015
Index Date (AQUA) Time (AQUA) Lat,Lon (AQUA) SZA (AQUA ) Date (METOP-B) Time (METOP-B) Lat,Lon (METOP-B) SZA (METOP-B ) Distance(km) Time Diff (sec)
1 09/27/2015 21:04:28 -73.72, 38.35 104.58 09/27/2015 21:03:46 -73.71, 38.30 104.59 2.33 42
2 09/27/2015 21:53:57 73.81,-154.21 75.53 09/27/2015 21:54:24 73.80,-154.14 75.52 2.66 27
3 09/30/2015 16:38:43 -73.74, 104.74 103.47 09/30/2015 16:38:06 -73.75, 104.80 103.46 1.92 37
4 09/30/2015 17:28:11 73.78, -87.70 76.59 09/30/2015 17:28:45 73.79, -87.76 76.60 2.20 34
5 10/03/2015 12:12:58 -73.72, 171.21 102.40 10/03/2015 12:12:28 -73.73, 171.17 102.39 1.53 30
6 10/03/2015 13:02:27 73.82, -21.35 77.71 10/03/2015 13:03:06 73.82, -21.28 77.72 2.43 39
7 10/06/2015 07:47:13 -73.73,-122.36 101.32 10/06/2015 07:46:50 -73.71,-122.46 101.33 3.55 23
8 10/06/2015 08:36:42 73.82, 45.08 78.80 10/06/2015 08:37:28 73.80, 45.09 78.78 1.68 46
9 10/09/2015 02:31:48 73.06, 137.83 79.07 10/09/2015 02:30:42 73.05, 135.13 79.10 87.48 66
10 10/09/2015 03:21:27 -73.75, -55.97 100.22 10/09/2015 03:21:10 -73.74, -55.99 100.23 1.16 17
11 10/09/2015 04:10:56 73.84, 111.46 79.89 10/09/2015 04:11:48 73.83, 111.56 79.88 3.11 52




NCC Satellite Simultaneous Nadir Overpasses (SNOs) Prediction Service
